TimeEST,TemperatureF,Dew PointF,Humidity,Sea Level PressureIn,VisibilityMPH,Wind Direction,Wind SpeedMPH,Gust SpeedMPH,PrecipitationIn,Events,Conditions,WindDirDegrees,DateUTC
12:53 AM,24.1,12.9,62,30.25,10.0,Calm,Calm,-,N/A,,Clear,0,2013-01-03 05:53:00
2:53 AM,24.1,12.0,60,30.25,10.0,Calm,Calm,-,N/A,,Clear,0,2013-01-03 07:53:00
3:53 AM,24.1,12.0,60,30.25,10.0,Calm,Calm,-,N/A,,Clear,0,2013-01-03 08:53:00
4:53 AM,21.0,12.9,71,30.25,10.0,Calm,Calm,-,N/A,,Clear,0,2013-01-03 09:53:00
5:53 AM,21.0,12.0,68,30.25,10.0,ENE,3.5,-,N/A,,Clear,70,2013-01-03 10:53:00
6:53 AM,19.9,12.0,71,30.25,9.0,Calm,Calm,-,N/A,,Clear,0,2013-01-03 11:53:00
7:53 AM,19.0,12.0,74,30.26,7.0,Calm,Calm,-,N/A,,Clear,0,2013-01-03 12:53:00
8:53 AM,21.9,14.0,72,30.27,9.0,Calm,Calm,-,N/A,,Clear,0,2013-01-03 13:53:00
9:53 AM,24.1,15.1,69,30.27,9.0,SSW,6.9,-,N/A,,Clear,200,2013-01-03 14:53:00
10:53 AM,26.1,16.0,66,30.27,10.0,SSW,3.5,-,N/A,,Clear,200,2013-01-03 15:53:00
11:53 AM,28.9,16.0,58,30.22,10.0,SSW,5.8,-,N/A,,Clear,200,2013-01-03 16:53:00
12:53 PM,30.9,16.0,54,30.19,10.0,Variable,3.5,-,N/A,,Clear,0,2013-01-03 17:53:00
1:53 PM,33.1,17.1,52,30.17,10.0,SW,8.1,-,N/A,,Clear,220,2013-01-03 18:53:00
2:53 PM,34.0,16.0,48,30.16,10.0,SW,5.8,-,N/A,,Clear,220,2013-01-03 19:53:00
3:53 PM,36.0,18.0,48,30.17,10.0,South,4.6,-,N/A,,Clear,190,2013-01-03 20:53:00
4:53 PM,35.1,18.0,50,30.17,10.0,SSW,5.8,-,N/A,,Clear,200,2013-01-03 21:53:00
5:53 PM,32.0,19.0,59,30.18,10.0,South,6.9,-,N/A,,Clear,190,2013-01-03 22:53:00
6:53 PM,33.1,18.0,54,30.19,10.0,SSW,3.5,-,N/A,,Clear,200,2013-01-03 23:53:00
7:53 PM,34.0,17.1,50,30.20,10.0,West,8.1,-,N/A,,Clear,260,2013-01-04 00:53:00
8:53 PM,34.0,18.0,52,30.19,10.0,West,10.4,-,N/A,,Mostly Cloudy,260,2013-01-04 01:53:00
9:53 PM,33.1,18.0,54,30.19,10.0,West,12.7,-,N/A,,Scattered Clouds,270,2013-01-04 02:53:00
10:53 PM,30.9,19.0,61,30.20,10.0,WNW,11.5,-,N/A,,Clear,290,2013-01-04 03:53:00
11:53 PM,33.1,19.9,59,30.20,10.0,West,12.7,21.9,N/A,,Overcast,280,2013-01-04 04:53:00